This demonstration page uses our WeatherBlox Daily Observations layout. Learn more.

Left ArrowRight Arrow

Hourly Observations for March 18, 2016

Temp ( °F °C ) Dew Point ( °F °C ) Humidity (%) Winds ( mph kmh ) Pressure ( in mb ) Visibility ( mi km ) Precip ( " mm )
12:54 am 00:54 Clear 39 3.9 22 -5.6 50 50 N 10 17 30.13 1020 10 16 0.00 0.00
1:54 am 01:54 Clear 37 2.8 22 -5.6 54 54 N 13 20 30.16 1021 10 16 0.00 0.00
2:54 am 02:54 Clear 36 2.2 22 -5.6 57 57 N 12 19 30.17 1022 10 16 0.00 0.00
3:54 am 03:54 Clear 34 1.1 22 -5.6 61 61 N 13 20 30.18 1022 10 16 0.00 0.00
4:54 am 04:54 Clear 33 0.6 23 -5 66 66 N 9 15 30.19 1023 10 16 0.00 0.00
5:54 am 05:54 Clear 32 0 23 -5 69 69 N 8 13 30.21 1023 10 16 0.00 0.00
6:54 am 06:54 Clear 31 -0.6 21 -6.1 67 67 N 8 13 30.22 1023 10 16 0.00 0.00
7:54 am 07:54 Sunny 32 0 21 -6.1 64 64 WNW 6 9 30.24 1024 10 16 0.00 0.00
8:54 am 08:54 Sunny 32 0 21 -6.1 64 64 WNW 8 13 30.26 1025 10 16 0.00 0.00
9:54 am 09:54 Sunny 33 0.6 20 -6.7 58 58 NW 10 17 30.28 1025 10 16 0.00 0.00
10:54 am 10:54 Sunny 35 1.7 20 -6.7 54 54 NNW 12 19 30.29 1026 10 16 0.00 0.00
11:54 am 11:54 Sunny 39 3.9 19 -7.2 45 45 NW 12 19 30.28 1025 10 16 0.00 0.00
12:54 pm 12:54 Mostly Sunny 43 6.1 19 -7.2 38 38 NW 13 20 30.27 1025 10 16 0.00 0.00
1:54 pm 13:54 Sunny 45 7.2 19 -7.2 35 35 NNW 15 24 30.23 1024 10 16 0.00 0.00
2:54 pm 14:54 Partly Cloudy 46 7.8 17 -8.3 31 31 NW 15 24 30.21 1023 10 16 0.00 0.00
3:54 pm 15:54 Mostly Sunny 47 8.3 16 -8.9 29 29 WNW 17 28 30.19 1023 10 16 0.00 0.00
4:54 pm 16:54 Mostly Sunny 48 8.9 15 -9.4 27 27 NW 18 30 30.18 1022 10 16 0.00 0.00
5:54 pm 17:54 Mostly Cloudy 45 7.2 16 -8.9 31 31 N 21 33 30.20 1023 10 16 0.00 0.00
6:54 pm 18:54 Mostly Cloudy 42 5.6 15 -9.4 33 33 N 14 22 30.22 1023 10 16 0.00 0.00
7:54 pm 19:54 Cloudy 42 5.6 15 -9.4 33 33 NW 9 15 30.24 1024 10 16 0.00 0.00
8:54 pm 20:54 Cloudy 40 4.4 17 -8.3 40 40 NNW 18 30 30.26 1025 10 16 0.00 0.00
9:54 pm 21:54 Clear 36 2.2 19 -7.2 50 50 NNW 10 17 30.28 1025 10 16 0.00 0.00
10:54 pm 22:54 Clear 34 1 19 -7 56 56 NW 5 7 30.30 1026 10 16 0.00 0.00
11:54 pm 23:54 Clear 32 0 19 -7.2 59 59 WNW 5 7 30.28 1025 10 16 0.00 0.00

Powered by AerisWeather